Regional Weather Roundup
Issued by NWS Upton, NY

Current Version | Previous Version | Text Only | Print | Product List | Glossary On
Versions: 1 2 3 4 5 6 7 8 9 10 11 12 13 14 15 16 17 18 19 20 21 22 23 24 25 26 27 28 29 30 31 32 33 34 35 36 37 38 39 40 41 42 43 44 45 46 47 48 49
000
ASUS41 KOKX 281307
RWROKX

REGIONAL WEATHER ROUNDUP
NATIONAL WEATHER SERVICE NEW YORK NY
900 AM EDT SAT MAR 28 2015

NOTE: "FAIR" INDICATES FEW OR NO CLOUDS BELOW 12,000 FEET WITH NO
SIGNIFICANT WEATHER AND/OR OBSTRUCTIONS TO VISIBILITY.

NYZ071-072-176-178-NJZ106-104-281400-
NEW YORK CITY METRO AREA


CITY           SKY/WX    TMP DP  RH WIND       PRES   REMARKS
CENTRAL PARK   CLOUDY    33  17  51 VRB7      29.83R WCI  27
LAGUARDIA APRT CLOUDY    35  20  54 NW14G23   29.80S WCI  26
KENNEDY INTL   FLURRIES  35  23  61 N16       29.80R WCI  25
NEWARK/LIBERTY PTSUNNY   33  18  53 NW17      29.82R WCI  22
BRNX BOT. GARD   N/A    N/A N/A N/A NW5       29.81R
TETERBORO      PTSUNNY   33  18  53 NW12      29.81R WCI  24
$$

NYZ177-179-078>081-281400-
LONG ISLAND NEW YORK

CITY           SKY/WX    TMP DP  RH WIND       PRES   REMARKS
FARMINGDALE    LGT SNOW  32  28  85 N15G21    29.78R FOG     WCI  22
ISLIP          LGT SNOW  32  28  85 NW16      29.75R VSB 1   WCI  21
SHIRLEY        LGT SNOW  33  30  88 NW10      29.77R VSB 3/4 WCI  25
WESTHAMPTON    SNOW      33  30  88 NW13      29.76R VSB 1/2 WCI  24
MONTAUK POINT    N/A     36  33  89 N8        29.73R WCI  30
$$

NYZ052-065-067-281400-
HUDSON VALLEY

CITY           SKY/WX    TMP DP  RH WIND       PRES   REMARKS
WHITE PLAINS   LGT SNOW  31  24  75 N20G28    29.77S WCI  19
NEWBURGH       PTSUNNY   32  21  64 N9G18     29.83R WCI  24
MONTGOMERY     CLOUDY    31  18  58 NW10      29.82R WCI  22
POUGHKEEPSIE   CLOUDY    32  22  66 N9        29.83R WCI  24
ALBANY         FLURRIES  27  20  75 NW12      29.90R WCI  17
$$

NJZ001-105-106-008-010-013-015-019>022-104-281400-
NEW JERSEY

CITY           SKY/WX    TMP DP  RH WIND       PRES   REMARKS
NEWARK/LIBERTY PTSUNNY   33  18  53 NW17      29.82R WCI  22
TETERBORO      PTSUNNY   33  18  53 NW12      29.81R WCI  24
CALDWELL       PTSUNNY   32  17  54 VRB5      29.83R WCI  27
MORRISTOWN     MOSUNNY   30  19  64 N13G21    29.83R WCI  20
SOMERVILLE     MOSUNNY   35  17  47 NW13G21   29.82S WCI  26
SUSSEX         PTSUNNY   30  16  56 N12G20    29.84R WCI  20
ANDOVER          N/A     30  16  56 N10G18    29.83S WCI  21
TRENTON        MOSUNNY   35  18  49 N13       29.82S WCI  26
MILLVILLE      MOSUNNY   38  23  55 NW14G20   29.85R WCI  30
ATLANTIC CITY  PTSUNNY   36  22  56 NW14      29.82R WCI  27
WRIGHTSTOWN    MOSUNNY   35  20  52 NW14      29.81S WCI  26
TOMS RIVER     PTSUNNY   34  18  51 NW15G23   29.82S WCI  24
BELMAR         PTSUNNY   36  18  48 NW17      29.80S WCI  25
$$

PAZ047>061-062-071-281400-
EASTERN PENNSYLVANIA

CITY           SKY/WX    TMP DP  RH WIND       PRES   REMARKS
PHILADELPHIA   PTSUNNY   36  18  48 N14       29.88R WCI  27
ALLENTOWN      CLOUDY    31  17  56 N16       29.88R WCI  20
SCRANTON       CLOUDY    25  12  58 N15G24    29.90R WCI  13
$$

CTZ002-004>006-009-010-012-RIZ004-006-007-MAZ004-011-015-281400-
SOUTHERN NEW ENGLAND
 IN CT

CITY           SKY/WX    TMP DP  RH WIND       PRES   REMARKS
BRADLEY INTL   LGT SNOW  33  30  88 N8        29.77R FOG     WCI  26
HARTFORD       LGT SNOW  33  30  88 N8        29.78R FOG     WCI  26
DANBURY        LGT SNOW  30  21  69 NW13G18   29.80R WCI  20
WTRBRY/OXFORD  LGT SNOW  30  21  69 N10G16    29.77R VSB 1   WCI  21
BRIDGEPORT     SNOW      32  29  88 N12       29.77S VSB 1/2 WCI  23
MERIDEN        LGT SNOW  33  29  85 NW8       29.77R FOG     WCI  26
NEW HAVEN      LGT SNOW  33  30  88 NW13      29.75R VSB 1   WCI  24
CHESTER        SNOW      34  32  93 N12G21    29.72S VSB 1/2 WCI  25
GROTON         LGT RAIN  36  34  92 N10       29.72R WCI  28
WILLIMANTIC    LGT SNOW  35  31  85 N6        29.74S FOG     WCI  30

 IN RI

CITY           SKY/WX    TMP DP  RH WIND       PRES   REMARKS
PROVIDENCE     LGT RAIN  35  33  92 N13       29.71F FOG     WCI  26
BLOCK ISLAND   CLOUDY    36  34  93 N8        29.69R WCI  29
WESTERLY       LGT RAIN  36  33  89 N9        29.71S WCI  29

 IN MA

CITY           SKY/WX    TMP DP  RH WIND       PRES   REMARKS
BOSTON         LGT SNOW  34  30  86 N16       29.75S VSB 3/4 WCI  23
WORCESTER      LGT SNOW  32  27  81 N12G21    29.71S WCI  23
WESTFIELD      LGT SNOW  33  28  81 N9        29.77R WCI  25
PROVINCETOWN   CLOUDY    37  34  87 NE14      29.69F WCI  29
NANTUCKET      CLOUDY    39  36  89 N18       29.62F WCI  30
$$

ANZ330-335-338-340-345-350-353-355-281400-
COASTAL MARINE OBSERVATIONS


STATION/POSITION TIME  SKY/WX   TEMP    WIND        PRES    VSBY  WAVE
                                AIR SEA DIR/SP/G                  HT/PER
                 (UTC)          (F)     (DEG/KT/KT) (MB)    (MI)  (FT/S)
NY HARB ENTRANCE 1250            34 38  320/ 21/ 23 1008.5          4/11
4S FIRE IS       1203               36                N/A           4/11
20S FIRE ISLAND  1150               38              1007.3          6/11
23SW MTP         1250                                 N/A           7/11
HUDSON CANYON    NOT AVBL
EXECUTION ROCKS  NOT AVBL
WESTERN LI SOUND NOT AVBL
CENTRAL LI SOUND NOT AVBL
EASTERN LI SOUND NOT AVBL
ROBBINS REEF     1200            33     340/ 15/ 21 1008.1
$$


>>>>>>>>>>>>>>>>>>>>>>>>>>>> KEY <<<<<<<<<<<<<<<<<<<<<<<<<<<
>                                                          <
>     SKY/WX - SKY CONDITION/PRESENT WEATHER               <
>     TMP    - TEMPERATURE IN FAHRENHEIT                   <
>     DP     - DEWPOINT IN FAHRENHEIT                      <
>     RH     - RELATIVE HUMIDITY IN PERCENT                <
>     WIND   - DIRECTION AND SPEED IN MPH                  <
>     PRES   - MEAN SEA LEVEL PRESSURE IN INCHES OF HG     <
>     WCI    - WIND CHILL INDEX                            <
>     VSB    - VISIBILITY IN MILES                         <
>     HX     - HEAT INDEX                                  <
>     TC     - TEMPERATURE IN CELSIUS                      <
>     VRB    - VARIABLE WIND DIRECTION                     <
>                                                          <
>>>>>>>>>>>>>>>>>>>>>>>>>>>> KEY <<<<<<<<<<<<<<<<<<<<<<<<<<<




USA.gov is the U.S. government's official web portal to all federal, state and local government web resources and services.